owner,sensor,date,latitude,longitude,relative_humidity,qcFlag 
COMPS,ioos:station:USF.COMPS:ARP:1,2016-06-01T00:00:00Z,28.4330,-82.6670,70.53,1111122 
COMPS,ioos:station:USF.COMPS:ARP:1,2016-06-01T00:06:00Z,28.4330,-82.6670,69.31,1111122 
COMPS,ioos:station:USF.COMPS:ARP:1,2016-06-01T00:12:00Z,28.4330,-82.6670,70.25,1111122 
COMPS,ioos:station:USF.COMPS:ARP:1,2016-06-01T00:18:00Z,28.4330,-82.6670,69.01,1111122 
COMPS,ioos:station:USF.COMPS:ARP:1,2016-06-01T00:24:00Z,28.4330,-82.6670,69.96,1111122 
COMPS,ioos:station:USF.COMPS:ARP:1,2016-06-01T00:30:00Z,28.4330,-82.6670,71.78,1111122 
COMPS,ioos:station:USF.COMPS:ARP:1,2016-06-01T00:36:00Z,28.4330,-82.6670,69.71,1111122 
COMPS,ioos:station:USF.COMPS:ARP:1,2016-06-01T00:42:00Z,28.4330,-82.6670,69.88,1111122 
COMPS,ioos:station:USF.COMPS:ARP:1,2016-06-01T00:48:00Z,28.4330,-82.6670,69.65,1111122 
COMPS,ioos:station:USF.COMPS:ARP:1,2016-06-01T00:54:00Z,28.4330,-82.6670,69.28,1111122 
COMPS,ioos:station:USF.COMPS:ARP:1,2016-06-01T01:00:00Z,28.4330,-82.6670,69.78,1111122 
COMPS,ioos:station:USF.COMPS:ARP:1,2016-06-01T01:06:00Z,28.4330,-82.6670,72.07,1111122 
COMPS,ioos:station:USF.COMPS:ARP:1,2016-06-01T01:12:00Z,28.4330,-82.6670,73.53,1111122 
COMPS,ioos:station:USF.COMPS:ARP:1,2016-06-01T01:18:00Z,28.4330,-82.6670,73.84,1111122 
COMPS,ioos:station:USF.COMPS:ARP:1,2016-06-01T01:24:00Z,28.4330,-82.6670,70.1,1111122 
COMPS,ioos:station:USF.COMPS:ARP:1,2016-06-01T01:30:00Z,28.4330,-82.6670,70.51,1111122 
COMPS,ioos:station:USF.COMPS:ARP:1,2016-06-01T01:36:00Z,28.4330,-82.6670,71.72,1111122 
COMPS,ioos:station:USF.COMPS:ARP:1,2016-06-01T01:42:00Z,28.4330,-82.6670,75.29,1111122 
COMPS,ioos:station:USF.COMPS:ARP:1,2016-06-01T01:48:00Z,28.4330,-82.6670,76.99,1111122 
COMPS,ioos:station:USF.COMPS:ARP:1,2016-06-01T01:54:00Z,28.4330,-82.6670,79.9,1111122 
COMPS,ioos:station:USF.COMPS:ARP:1,2016-06-01T02:00:00Z,28.4330,-82.6670,81.66,1111122 
COMPS,ioos:station:USF.COMPS:ARP:1,2016-06-01T02:06:00Z,28.4330,-82.6670,81.58,1111122 
COMPS,ioos:station:USF.COMPS:ARP:1,2016-06-01T02:12:00Z,28.4330,-82.6670,81.21,1111122 
COMPS,ioos:station:USF.COMPS:ARP:1,2016-06-01T02:18:00Z,28.4330,-82.6670,81.73,1111122 
COMPS,ioos:station:USF.COMPS:ARP:1,2016-06-01T02:24:00Z,28.4330,-82.6670,81.65,1111122 
COMPS,ioos:station:USF.COMPS:ARP:1,2016-06-01T02:30:00Z,28.4330,-82.6670,82.44,1111122 
COMPS,ioos:station:USF.COMPS:ARP:1,2016-06-01T02:36:00Z,28.4330,-82.6670,83.0,1111122 
COMPS,ioos:station:USF.COMPS:ARP:1,2016-06-01T02:42:00Z,28.4330,-82.6670,83.17,1111122 
COMPS,ioos:station:USF.COMPS:ARP:1,2016-06-01T02:48:00Z,28.4330,-82.6670,83.53,1111122 
COMPS,ioos:station:USF.COMPS:ARP:1,2016-06-01T02:54:00Z,28.4330,-82.6670,84.08,1111122 
COMPS,ioos:station:USF.COMPS:ARP:1,2016-06-01T03:00:00Z,28.4330,-82.6670,83.89,1111122 
COMPS,ioos:station:USF.COMPS:ARP:1,2016-06-01T03:06:00Z,28.4330,-82.6670,83.62,1111122 
COMPS,ioos:station:USF.COMPS:ARP:1,2016-06-01T03:12:00Z,28.4330,-82.6670,83.57,1111122 
COMPS,ioos:station:USF.COMPS:ARP:1,2016-06-01T03:18:00Z,28.4330,-82.6670,83.37,1111122 
COMPS,ioos:station:USF.COMPS:ARP:1,2016-06-01T03:24:00Z,28.4330,-82.6670,83.09,1111122 
COMPS,ioos:station:USF.COMPS:ARP:1,2016-06-01T03:30:00Z,28.4330,-82.6670,82.87,1111122 
COMPS,ioos:station:USF.COMPS:ARP:1,2016-06-01T03:36:00Z,28.4330,-82.6670,82.97,1111122 
COMPS,ioos:station:USF.COMPS:ARP:1,2016-06-01T03:42:00Z,28.4330,-82.6670,83.26,1111122 
COMPS,ioos:station:USF.COMPS:ARP:1,2016-06-01T03:48:00Z,28.4330,-82.6670,83.47,1111122 
COMPS,ioos:station:USF.COMPS:ARP:1,2016-06-01T03:54:00Z,28.4330,-82.6670,83.42,1111122 
COMPS,ioos:station:USF.COMPS:ARP:1,2016-06-01T04:00:00Z,28.4330,-82.6670,84.11,1111122 
COMPS,ioos:station:USF.COMPS:ARP:1,2016-06-01T04:06:00Z,28.4330,-82.6670,84.44,1111122 
COMPS,ioos:station:USF.COMPS:ARP:1,2016-06-01T04:12:00Z,28.4330,-82.6670,84.91,1111122 
COMPS,ioos:station:USF.COMPS:ARP:1,2016-06-01T04:18:00Z,28.4330,-82.6670,85.36,1111122 
COMPS,ioos:station:USF.COMPS:ARP:1,2016-06-01T04:24:00Z,28.4330,-82.6670,85.49,1111122 
COMPS,ioos:station:USF.COMPS:ARP:1,2016-06-01T04:30:00Z,28.4330,-82.6670,85.69,1111122 
COMPS,ioos:station:USF.COMPS:ARP:1,2016-06-01T04:36:00Z,28.4330,-82.6670,85.65,1111122 
COMPS,ioos:station:USF.COMPS:ARP:1,2016-06-01T04:42:00Z,28.4330,-82.6670,86.14,1111122 
COMPS,ioos:station:USF.COMPS:ARP:1,2016-06-01T04:48:00Z,28.4330,-82.6670,86.4,1111122 
COMPS,ioos:station:USF.COMPS:ARP:1,2016-06-01T04:54:00Z,28.4330,-82.6670,86.53,1111122 
COMPS,ioos:station:USF.COMPS:ARP:1,2016-06-01T05:00:00Z,28.4330,-82.6670,86.22,1111122 
COMPS,ioos:station:USF.COMPS:ARP:1,2016-06-01T05:06:00Z,28.4330,-82.6670,86.65,1111122 
COMPS,ioos:station:USF.COMPS:ARP:1,2016-06-01T05:12:00Z,28.4330,-82.6670,87.74,1111122 
COMPS,ioos:station:USF.COMPS:ARP:1,2016-06-01T05:18:00Z,28.4330,-82.6670,88.19,1111122 
COMPS,ioos:station:USF.COMPS:ARP:1,2016-06-01T05:24:00Z,28.4330,-82.6670,88.64,1111122 
COMPS,ioos:station:USF.COMPS:ARP:1,2016-06-01T05:30:00Z,28.4330,-82.6670,88.77,1111122 
COMPS,ioos:station:USF.COMPS:ARP:1,2016-06-01T05:36:00Z,28.4330,-82.6670,88.68,1111122 
COMPS,ioos:station:USF.COMPS:ARP:1,2016-06-01T05:42:00Z,28.4330,-82.6670,88.64,1111122 
COMPS,ioos:station:USF.COMPS:ARP:1,2016-06-01T05:48:00Z,28.4330,-82.6670,88.57,1111122 
COMPS,ioos:station:USF.COMPS:ARP:1,2016-06-01T05:54:00Z,28.4330,-82.6670,87.73,1111122 
COMPS,ioos:station:USF.COMPS:ARP:1,2016-06-01T06:00:00Z,28.4330,-82.6670,87.46,1111122 
COMPS,ioos:station:USF.COMPS:ARP:1,2016-06-01T06:06:00Z,28.4330,-82.6670,88.03,1111122 
COMPS,ioos:station:USF.COMPS:ARP:1,2016-06-01T06:12:00Z,28.4330,-82.6670,87.82,1111122 
COMPS,ioos:station:USF.COMPS:ARP:1,2016-06-01T06:18:00Z,28.4330,-82.6670,87.99,1111122 
COMPS,ioos:station:USF.COMPS:ARP:1,2016-06-01T06:24:00Z,28.4330,-82.6670,88.88,1111122 
COMPS,ioos:station:USF.COMPS:ARP:1,2016-06-01T06:30:00Z,28.4330,-82.6670,89.25,1111122 
COMPS,ioos:station:USF.COMPS:ARP:1,2016-06-01T06:36:00Z,28.4330,-82.6670,89.15,1111122 
COMPS,ioos:station:USF.COMPS:ARP:1,2016-06-01T06:42:00Z,28.4330,-82.6670,89.08,1111122 
COMPS,ioos:station:USF.COMPS:ARP:1,2016-06-01T06:48:00Z,28.4330,-82.6670,87.97,1111122 
COMPS,ioos:station:USF.COMPS:ARP:1,2016-06-01T06:54:00Z,28.4330,-82.6670,87.84,1111122 
COMPS,ioos:station:USF.COMPS:ARP:1,2016-06-01T07:00:00Z,28.4330,-82.6670,88.46,1111122 
COMPS,ioos:station:USF.COMPS:ARP:1,2016-06-01T07:06:00Z,28.4330,-82.6670,88.46,1111122 
COMPS,ioos:station:USF.COMPS:ARP:1,2016-06-01T07:12:00Z,28.4330,-82.6670,89.0,1111122 
COMPS,ioos:station:USF.COMPS:ARP:1,2016-06-01T07:18:00Z,28.4330,-82.6670,89.53,1111122 
COMPS,ioos:station:USF.COMPS:ARP:1,2016-06-01T07:24:00Z,28.4330,-82.6670,89.99,1111122 
COMPS,ioos:station:USF.COMPS:ARP:1,2016-06-01T07:30:00Z,28.4330,-82.6670,90.44,1111122 
COMPS,ioos:station:USF.COMPS:ARP:1,2016-06-01T07:36:00Z,28.4330,-82.6670,90.89,1111122 
COMPS,ioos:station:USF.COMPS:ARP:1,2016-06-01T07:42:00Z,28.4330,-82.6670,91.3,1111122 
COMPS,ioos:station:USF.COMPS:ARP:1,2016-06-01T07:48:00Z,28.4330,-82.6670,91.61,1111122 
COMPS,ioos:station:USF.COMPS:ARP:1,2016-06-01T07:54:00Z,28.4330,-82.6670,92.21,1111122 
COMPS,ioos:station:USF.COMPS:ARP:1,2016-06-01T08:00:00Z,28.4330,-82.6670,92.65,1111122 
COMPS,ioos:station:USF.COMPS:ARP:1,2016-06-01T08:06:00Z,28.4330,-82.6670,92.74,1111122 
COMPS,ioos:station:USF.COMPS:ARP:1,2016-06-01T08:12:00Z,28.4330,-82.6670,92.68,1111122 
COMPS,ioos:station:USF.COMPS:ARP:1,2016-06-01T08:18:00Z,28.4330,-82.6670,92.88,1111122 
COMPS,ioos:station:USF.COMPS:ARP:1,2016-06-01T08:24:00Z,28.4330,-82.6670,93.04,1111122 
COMPS,ioos:station:USF.COMPS:ARP:1,2016-06-01T08:30:00Z,28.4330,-82.6670,92.79,1111122 
COMPS,ioos:station:USF.COMPS:ARP:1,2016-06-01T08:36:00Z,28.4330,-82.6670,92.99,1111122 
COMPS,ioos:station:USF.COMPS:ARP:1,2016-06-01T08:42:00Z,28.4330,-82.6670,92.78,1111122 
COMPS,ioos:station:USF.COMPS:ARP:1,2016-06-01T08:48:00Z,28.4330,-82.6670,92.63,1111122 
COMPS,ioos:station:USF.COMPS:ARP:1,2016-06-01T08:54:00Z,28.4330,-82.6670,92.55,1111122 
COMPS,ioos:station:USF.COMPS:ARP:1,2016-06-01T09:00:00Z,28.4330,-82.6670,92.42,1111122 
COMPS,ioos:station:USF.COMPS:ARP:1,2016-06-01T09:06:00Z,28.4330,-82.6670,92.34,1111122 
COMPS,ioos:station:USF.COMPS:ARP:1,2016-06-01T09:12:00Z,28.4330,-82.6670,92.34,1111122 
COMPS,ioos:station:USF.COMPS:ARP:1,2016-06-01T09:18:00Z,28.4330,-82.6670,92.42,1111122 
COMPS,ioos:station:USF.COMPS:ARP:1,2016-06-01T09:24:00Z,28.4330,-82.6670,92.54,1111122 
COMPS,ioos:station:USF.COMPS:ARP:1,2016-06-01T09:30:00Z,28.4330,-82.6670,92.56,1111122 
COMPS,ioos:station:USF.COMPS:ARP:1,2016-06-01T09:36:00Z,28.4330,-82.6670,92.56,1111122 
COMPS,ioos:station:USF.COMPS:ARP:1,2016-06-01T09:42:00Z,28.4330,-82.6670,92.63,1111122 
COMPS,ioos:station:USF.COMPS:ARP:1,2016-06-01T09:48:00Z,28.4330,-82.6670,92.59,1111122 
COMPS,ioos:station:USF.COMPS:ARP:1,2016-06-01T09:54:00Z,28.4330,-82.6670,92.67,1111122 
COMPS,ioos:station:USF.COMPS:ARP:1,2016-06-01T10:00:00Z,28.4330,-82.6670,92.71,1111122 
COMPS,ioos:station:USF.COMPS:ARP:1,2016-06-01T10:06:00Z,28.4330,-82.6670,92.89,1111122 
COMPS,ioos:station:USF.COMPS:ARP:1,2016-06-01T10:12:00Z,28.4330,-82.6670,92.97,1111122 
COMPS,ioos:station:USF.COMPS:ARP:1,2016-06-01T10:18:00Z,28.4330,-82.6670,92.95,1111122 
COMPS,ioos:station:USF.COMPS:ARP:1,2016-06-01T10:24:00Z,28.4330,-82.6670,93.14,1111122 
COMPS,ioos:station:USF.COMPS:ARP:1,2016-06-01T10:30:00Z,28.4330,-82.6670,93.24,1111122 
COMPS,ioos:station:USF.COMPS:ARP:1,2016-06-01T10:36:00Z,28.4330,-82.6670,93.22,1111122 
COMPS,ioos:station:USF.COMPS:ARP:1,2016-06-01T10:42:00Z,28.4330,-82.6670,93.42,1111122 
COMPS,ioos:station:USF.COMPS:ARP:1,2016-06-01T10:48:00Z,28.4330,-82.6670,93.77,1111122 
COMPS,ioos:station:USF.COMPS:ARP:1,2016-06-01T10:54:00Z,28.4330,-82.6670,93.73,1111122 
COMPS,ioos:station:USF.COMPS:ARP:1,2016-06-01T11:00:00Z,28.4330,-82.6670,93.6,1111122 
COMPS,ioos:station:USF.COMPS:ARP:1,2016-06-01T11:06:00Z,28.4330,-82.6670,93.55,1111122 
COMPS,ioos:station:USF.COMPS:ARP:1,2016-06-01T11:12:00Z,28.4330,-82.6670,93.16,1111122 
COMPS,ioos:station:USF.COMPS:ARP:1,2016-06-01T11:18:00Z,28.4330,-82.6670,92.95,1111122 
COMPS,ioos:station:USF.COMPS:ARP:1,2016-06-01T11:24:00Z,28.4330,-82.6670,92.05,1111122 
COMPS,ioos:station:USF.COMPS:ARP:1,2016-06-01T11:30:00Z,28.4330,-82.6670,90.99,1111122 
COMPS,ioos:station:USF.COMPS:ARP:1,2016-06-01T11:36:00Z,28.4330,-82.6670,89.86,1111122 
COMPS,ioos:station:USF.COMPS:ARP:1,2016-06-01T11:42:00Z,28.4330,-82.6670,88.53,1111122 
COMPS,ioos:station:USF.COMPS:ARP:1,2016-06-01T11:48:00Z,28.4330,-82.6670,87.03,1111122 
COMPS,ioos:station:USF.COMPS:ARP:1,2016-06-01T11:54:00Z,28.4330,-82.6670,85.97,1111122 
COMPS,ioos:station:USF.COMPS:ARP:1,2016-06-01T12:00:00Z,28.4330,-82.6670,84.48,1111122 
COMPS,ioos:station:USF.COMPS:ARP:1,2016-06-01T12:06:00Z,28.4330,-82.6670,83.25,1111122 
COMPS,ioos:station:USF.COMPS:ARP:1,2016-06-01T12:12:00Z,28.4330,-82.6670,82.02,1111122 
COMPS,ioos:station:USF.COMPS:ARP:1,2016-06-01T12:18:00Z,28.4330,-82.6670,80.88,1111122 
COMPS,ioos:station:USF.COMPS:ARP:1,2016-06-01T12:24:00Z,28.4330,-82.6670,80.02,1111122 
COMPS,ioos:station:USF.COMPS:ARP:1,2016-06-01T12:30:00Z,28.4330,-82.6670,79.71,1111122 
COMPS,ioos:station:USF.COMPS:ARP:1,2016-06-01T12:36:00Z,28.4330,-82.6670,79.01,1111122 
COMPS,ioos:station:USF.COMPS:ARP:1,2016-06-01T12:42:00Z,28.4330,-82.6670,78.57,1111122 
COMPS,ioos:station:USF.COMPS:ARP:1,2016-06-01T12:48:00Z,28.4330,-82.6670,77.53,1111122 
COMPS,ioos:station:USF.COMPS:ARP:1,2016-06-01T12:54:00Z,28.4330,-82.6670,76.62,1111122 
COMPS,ioos:station:USF.COMPS:ARP:1,2016-06-01T13:00:00Z,28.4330,-82.6670,75.58,1111122 
COMPS,ioos:station:USF.COMPS:ARP:1,2016-06-01T13:06:00Z,28.4330,-82.6670,75.02,1111122 
COMPS,ioos:station:USF.COMPS:ARP:1,2016-06-01T13:12:00Z,28.4330,-82.6670,75.04,1111122 
COMPS,ioos:station:USF.COMPS:ARP:1,2016-06-01T13:18:00Z,28.4330,-82.6670,75.58,1111122 
COMPS,ioos:station:USF.COMPS:ARP:1,2016-06-01T13:24:00Z,28.4330,-82.6670,74.84,1111122 
COMPS,ioos:station:USF.COMPS:ARP:1,2016-06-01T13:30:00Z,28.4330,-82.6670,73.78,1111122 
COMPS,ioos:station:USF.COMPS:ARP:1,2016-06-01T13:36:00Z,28.4330,-82.6670,73.98,1111122 
COMPS,ioos:station:USF.COMPS:ARP:1,2016-06-01T13:42:00Z,28.4330,-82.6670,73.71,1111122 
COMPS,ioos:station:USF.COMPS:ARP:1,2016-06-01T13:48:00Z,28.4330,-82.6670,73.04,1111122 
COMPS,ioos:station:USF.COMPS:ARP:1,2016-06-01T13:54:00Z,28.4330,-82.6670,73.14,1111122 
COMPS,ioos:station:USF.COMPS:ARP:1,2016-06-01T14:00:00Z,28.4330,-82.6670,70.7,1111122 
COMPS,ioos:station:USF.COMPS:ARP:1,2016-06-01T14:06:00Z,28.4330,-82.6670,70.87,1111122 
COMPS,ioos:station:USF.COMPS:ARP:1,2016-06-01T14:12:00Z,28.4330,-82.6670,71.3,1111122 
COMPS,ioos:station:USF.COMPS:ARP:1,2016-06-01T14:18:00Z,28.4330,-82.6670,72.97,1111122 
COMPS,ioos:station:USF.COMPS:ARP:1,2016-06-01T14:24:00Z,28.4330,-82.6670,72.46,1111122 
COMPS,ioos:station:USF.COMPS:ARP:1,2016-06-01T14:30:00Z,28.4330,-82.6670,72.09,1111122 
COMPS,ioos:station:USF.COMPS:ARP:1,2016-06-01T14:36:00Z,28.4330,-82.6670,70.9,1111122 
COMPS,ioos:station:USF.COMPS:ARP:1,2016-06-01T14:42:00Z,28.4330,-82.6670,71.56,1111122 
COMPS,ioos:station:USF.COMPS:ARP:1,2016-06-01T14:48:00Z,28.4330,-82.6670,71.33,1111122 
COMPS,ioos:station:USF.COMPS:ARP:1,2016-06-01T14:54:00Z,28.4330,-82.6670,71.74,1111122 
COMPS,ioos:station:USF.COMPS:ARP:1,2016-06-01T15:00:00Z,28.4330,-82.6670,72.57,1111122 
COMPS,ioos:station:USF.COMPS:ARP:1,2016-06-01T15:06:00Z,28.4330,-82.6670,72.5,1111122 
COMPS,ioos:station:USF.COMPS:ARP:1,2016-06-01T15:12:00Z,28.4330,-82.6670,72.37,1111122 
COMPS,ioos:station:USF.COMPS:ARP:1,2016-06-01T15:18:00Z,28.4330,-82.6670,73.68,1111122 
COMPS,ioos:station:USF.COMPS:ARP:1,2016-06-01T15:24:00Z,28.4330,-82.6670,73.12,1111122 
COMPS,ioos:station:USF.COMPS:ARP:1,2016-06-01T15:30:00Z,28.4330,-82.6670,72.99,1111122 
COMPS,ioos:station:USF.COMPS:ARP:1,2016-06-01T15:36:00Z,28.4330,-82.6670,71.82,1111122 
COMPS,ioos:station:USF.COMPS:ARP:1,2016-06-01T15:42:00Z,28.4330,-82.6670,72.2,1111122 
COMPS,ioos:station:USF.COMPS:ARP:1,2016-06-01T15:48:00Z,28.4330,-82.6670,71.46,1111122 
COMPS,ioos:station:USF.COMPS:ARP:1,2016-06-01T15:54:00Z,28.4330,-82.6670,71.7,1111122 
COMPS,ioos:station:USF.COMPS:ARP:1,2016-06-01T16:00:00Z,28.4330,-82.6670,72.85,1111122 
COMPS,ioos:station:USF.COMPS:ARP:1,2016-06-01T16:06:00Z,28.4330,-82.6670,72.21,1111122 
COMPS,ioos:station:USF.COMPS:ARP:1,2016-06-01T16:12:00Z,28.4330,-82.6670,71.43,1111122 
COMPS,ioos:station:USF.COMPS:ARP:1,2016-06-01T16:18:00Z,28.4330,-82.6670,72.6,1111122 
COMPS,ioos:station:USF.COMPS:ARP:1,2016-06-01T16:24:00Z,28.4330,-82.6670,73.25,1111122 
COMPS,ioos:station:USF.COMPS:ARP:1,2016-06-01T16:30:00Z,28.4330,-82.6670,73.07,1111122 
COMPS,ioos:station:USF.COMPS:ARP:1,2016-06-01T16:36:00Z,28.4330,-82.6670,71.56,1111122 
COMPS,ioos:station:USF.COMPS:ARP:1,2016-06-01T16:42:00Z,28.4330,-82.6670,71.88,1111122 
COMPS,ioos:station:USF.COMPS:ARP:1,2016-06-01T16:48:00Z,28.4330,-82.6670,72.66,1111122 
COMPS,ioos:station:USF.COMPS:ARP:1,2016-06-01T16:54:00Z,28.4330,-82.6670,70.32,1111122 
COMPS,ioos:station:USF.COMPS:ARP:1,2016-06-01T17:00:00Z,28.4330,-82.6670,70.0,1111122 
COMPS,ioos:station:USF.COMPS:ARP:1,2016-06-01T17:06:00Z,28.4330,-82.6670,69.71,1111122 
COMPS,ioos:station:USF.COMPS:ARP:1,2016-06-01T17:12:00Z,28.4330,-82.6670,71.3,1111122 
COMPS,ioos:station:USF.COMPS:ARP:1,2016-06-01T17:18:00Z,28.4330,-82.6670,69.28,1111122 
COMPS,ioos:station:USF.COMPS:ARP:1,2016-06-01T17:24:00Z,28.4330,-82.6670,69.19,1111122 
COMPS,ioos:station:USF.COMPS:ARP:1,2016-06-01T17:30:00Z,28.4330,-82.6670,69.2,1111122 
COMPS,ioos:station:USF.COMPS:ARP:1,2016-06-01T17:36:00Z,28.4330,-82.6670,68.19,1111122 
COMPS,ioos:station:USF.COMPS:ARP:1,2016-06-01T17:42:00Z,28.4330,-82.6670,68.37,1111122 
COMPS,ioos:station:USF.COMPS:ARP:1,2016-06-01T17:48:00Z,28.4330,-82.6670,68.17,1111122 
COMPS,ioos:station:USF.COMPS:ARP:1,2016-06-01T17:54:00Z,28.4330,-82.6670,65.87,1111122 
COMPS,ioos:station:USF.COMPS:ARP:1,2016-06-01T18:00:00Z,28.4330,-82.6670,65.3,1111122 
COMPS,ioos:station:USF.COMPS:ARP:1,2016-06-01T18:06:00Z,28.4330,-82.6670,64.89,1111122 
COMPS,ioos:station:USF.COMPS:ARP:1,2016-06-01T18:12:00Z,28.4330,-82.6670,66.49,1111122 
COMPS,ioos:station:USF.COMPS:ARP:1,2016-06-01T18:18:00Z,28.4330,-82.6670,64.81,1111122 
COMPS,ioos:station:USF.COMPS:ARP:1,2016-06-01T18:24:00Z,28.4330,-82.6670,63.5,1111122 
COMPS,ioos:station:USF.COMPS:ARP:1,2016-06-01T18:30:00Z,28.4330,-82.6670,63.83,1111122 
COMPS,ioos:station:USF.COMPS:ARP:1,2016-06-01T18:36:00Z,28.4330,-82.6670,63.08,1111122 
COMPS,ioos:station:USF.COMPS:ARP:1,2016-06-01T18:42:00Z,28.4330,-82.6670,61.8,1111122 
COMPS,ioos:station:USF.COMPS:ARP:1,2016-06-01T18:48:00Z,28.4330,-82.6670,60.92,1111122 
COMPS,ioos:station:USF.COMPS:ARP:1,2016-06-01T18:54:00Z,28.4330,-82.6670,60.11,1111122 
COMPS,ioos:station:USF.COMPS:ARP:1,2016-06-01T19:00:00Z,28.4330,-82.6670,61.67,1111122 
COMPS,ioos:station:USF.COMPS:ARP:1,2016-06-01T19:06:00Z,28.4330,-82.6670,62.0,1111122 
COMPS,ioos:station:USF.COMPS:ARP:1,2016-06-01T19:12:00Z,28.4330,-82.6670,61.7,1111122 
COMPS,ioos:station:USF.COMPS:ARP:1,2016-06-01T19:18:00Z,28.4330,-82.6670,61.58,1111122 
COMPS,ioos:station:USF.COMPS:ARP:1,2016-06-01T19:24:00Z,28.4330,-82.6670,60.31,1111122 
COMPS,ioos:station:USF.COMPS:ARP:1,2016-06-01T19:30:00Z,28.4330,-82.6670,60.13,1111122 
COMPS,ioos:station:USF.COMPS:ARP:1,2016-06-01T19:36:00Z,28.4330,-82.6670,59.83,1111122 
COMPS,ioos:station:USF.COMPS:ARP:1,2016-06-01T19:42:00Z,28.4330,-82.6670,59.11,1111122 
COMPS,ioos:station:USF.COMPS:ARP:1,2016-06-01T19:48:00Z,28.4330,-82.6670,57.51,1111122 
COMPS,ioos:station:USF.COMPS:ARP:1,2016-06-01T19:54:00Z,28.4330,-82.6670,54.89,1111122 
COMPS,ioos:station:USF.COMPS:ARP:1,2016-06-01T20:00:00Z,28.4330,-82.6670,58.07,1111122 
COMPS,ioos:station:USF.COMPS:ARP:1,2016-06-01T20:06:00Z,28.4330,-82.6670,58.53,1111122 
COMPS,ioos:station:USF.COMPS:ARP:1,2016-06-01T20:12:00Z,28.4330,-82.6670,57.96,1111122 
COMPS,ioos:station:USF.COMPS:ARP:1,2016-06-01T20:18:00Z,28.4330,-82.6670,60.01,1111122 
COMPS,ioos:station:USF.COMPS:ARP:1,2016-06-01T20:24:00Z,28.4330,-82.6670,59.36,1111122 
COMPS,ioos:station:USF.COMPS:ARP:1,2016-06-01T20:30:00Z,28.4330,-82.6670,61.08,1111122 
COMPS,ioos:station:USF.COMPS:ARP:1,2016-06-01T20:36:00Z,28.4330,-82.6670,60.4,1111122 
COMPS,ioos:station:USF.COMPS:ARP:1,2016-06-01T20:42:00Z,28.4330,-82.6670,59.91,1111122 
COMPS,ioos:station:USF.COMPS:ARP:1,2016-06-01T20:48:00Z,28.4330,-82.6670,62.56,1111122 
COMPS,ioos:station:USF.COMPS:ARP:1,2016-06-01T20:54:00Z,28.4330,-82.6670,63.14,1111122 
COMPS,ioos:station:USF.COMPS:ARP:1,2016-06-01T21:00:00Z,28.4330,-82.6670,63.7,1111122 
COMPS,ioos:station:USF.COMPS:ARP:1,2016-06-01T21:06:00Z,28.4330,-82.6670,64.17,1111122 
COMPS,ioos:station:USF.COMPS:ARP:1,2016-06-01T21:12:00Z,28.4330,-82.6670,63.98,1111122 
COMPS,ioos:station:USF.COMPS:ARP:1,2016-06-01T21:18:00Z,28.4330,-82.6670,64.11,1111122 
COMPS,ioos:station:USF.COMPS:ARP:1,2016-06-01T21:24:00Z,28.4330,-82.6670,62.37,1111122 
COMPS,ioos:station:USF.COMPS:ARP:1,2016-06-01T21:30:00Z,28.4330,-82.6670,62.54,1111122 
COMPS,ioos:station:USF.COMPS:ARP:1,2016-06-01T21:36:00Z,28.4330,-82.6670,61.44,1111122 
COMPS,ioos:station:USF.COMPS:ARP:1,2016-06-01T21:42:00Z,28.4330,-82.6670,63.95,1111122 
COMPS,ioos:station:USF.COMPS:ARP:1,2016-06-01T21:48:00Z,28.4330,-82.6670,60.49,1111122 
COMPS,ioos:station:USF.COMPS:ARP:1,2016-06-01T21:54:00Z,28.4330,-82.6670,59.09,1111122 
COMPS,ioos:station:USF.COMPS:ARP:1,2016-06-01T22:00:00Z,28.4330,-82.6670,58.49,1111122 
COMPS,ioos:station:USF.COMPS:ARP:1,2016-06-01T22:06:00Z,28.4330,-82.6670,61.67,1111122 
COMPS,ioos:station:USF.COMPS:ARP:1,2016-06-01T22:12:00Z,28.4330,-82.6670,60.38,1111122 
COMPS,ioos:station:USF.COMPS:ARP:1,2016-06-01T22:18:00Z,28.4330,-82.6670,61.42,1111122 
COMPS,ioos:station:USF.COMPS:ARP:1,2016-06-01T22:24:00Z,28.4330,-82.6670,62.33,1111122 
COMPS,ioos:station:USF.COMPS:ARP:1,2016-06-01T22:30:00Z,28.4330,-82.6670,61.67,1111122 
COMPS,ioos:station:USF.COMPS:ARP:1,2016-06-01T22:36:00Z,28.4330,-82.6670,60.83,1111122 
COMPS,ioos:station:USF.COMPS:ARP:1,2016-06-01T22:42:00Z,28.4330,-82.6670,61.53,1111122 
COMPS,ioos:station:USF.COMPS:ARP:1,2016-06-01T22:48:00Z,28.4330,-82.6670,62.95,1111122 
COMPS,ioos:station:USF.COMPS:ARP:1,2016-06-01T22:54:00Z,28.4330,-82.6670,62.97,1111122 
COMPS,ioos:station:USF.COMPS:ARP:1,2016-06-01T23:00:00Z,28.4330,-82.6670,64.53,1111122 
COMPS,ioos:station:USF.COMPS:ARP:1,2016-06-01T23:06:00Z,28.4330,-82.6670,65.87,1111122 
COMPS,ioos:station:USF.COMPS:ARP:1,2016-06-01T23:12:00Z,28.4330,-82.6670,65.79,1111122 
COMPS,ioos:station:USF.COMPS:ARP:1,2016-06-01T23:18:00Z,28.4330,-82.6670,67.15,1111122 
COMPS,ioos:station:USF.COMPS:ARP:1,2016-06-01T23:24:00Z,28.4330,-82.6670,67.3,1111122 
COMPS,ioos:station:USF.COMPS:ARP:1,2016-06-01T23:30:00Z,28.4330,-82.6670,67.2,1111122 
COMPS,ioos:station:USF.COMPS:ARP:1,2016-06-01T23:36:00Z,28.4330,-82.6670,67.9,1111122 
COMPS,ioos:station:USF.COMPS:ARP:1,2016-06-01T23:42:00Z,28.4330,-82.6670,67.06,1111122 
COMPS,ioos:station:USF.COMPS:ARP:1,2016-06-01T23:48:00Z,28.4330,-82.6670,68.08,1111122 
COMPS,ioos:station:USF.COMPS:ARP:1,2016-06-01T23:54:00Z,28.4330,-82.6670,68.71,1111122 
COMPS,ioos:station:USF.COMPS:ARP:1,2016-06-02T00:00:00Z,28.4330,-82.6670,69.07,1111122 
COMPS,ioos:station:USF.COMPS:ARP:1,2016-06-02T00:06:00Z,28.4330,-82.6670,69.26,1111122 
COMPS,ioos:station:USF.COMPS:ARP:1,2016-06-02T00:12:00Z,28.4330,-82.6670,68.99,1111122 
COMPS,ioos:station:USF.COMPS:ARP:1,2016-06-02T00:18:00Z,28.4330,-82.6670,69.01,1111122 
COMPS,ioos:station:USF.COMPS:ARP:1,2016-06-02T00:24:00Z,28.4330,-82.6670,68.59,1111122 
COMPS,ioos:station:USF.COMPS:ARP:1,2016-06-02T00:30:00Z,28.4330,-82.6670,68.25,1111122 
COMPS,ioos:station:USF.COMPS:ARP:1,2016-06-02T00:36:00Z,28.4330,-82.6670,67.36,1111122 
COMPS,ioos:station:USF.COMPS:ARP:1,2016-06-02T00:42:00Z,28.4330,-82.6670,67.4,1111122 
COMPS,ioos:station:USF.COMPS:ARP:1,2016-06-02T00:48:00Z,28.4330,-82.6670,68.46,1111122 
COMPS,ioos:station:USF.COMPS:ARP:1,2016-06-02T00:54:00Z,28.4330,-82.6670,68.62,1111122 
COMPS,ioos:station:USF.COMPS:ARP:1,2016-06-02T01:00:00Z,28.4330,-82.6670,68.15,1111122 
COMPS,ioos:station:USF.COMPS:ARP:1,2016-06-02T01:06:00Z,28.4330,-82.6670,67.77,1111122 
COMPS,ioos:station:USF.COMPS:ARP:1,2016-06-02T01:12:00Z,28.4330,-82.6670,68.14,1111122 
COMPS,ioos:station:USF.COMPS:ARP:1,2016-06-02T01:18:00Z,28.4330,-82.6670,70.08,1111122 
COMPS,ioos:station:USF.COMPS:ARP:1,2016-06-02T01:24:00Z,28.4330,-82.6670,72.09,1111122 
COMPS,ioos:station:USF.COMPS:ARP:1,2016-06-02T01:30:00Z,28.4330,-82.6670,73.54,1111122 
COMPS,ioos:station:USF.COMPS:ARP:1,2016-06-02T01:36:00Z,28.4330,-82.6670,73.43,1111122 
COMPS,ioos:station:USF.COMPS:ARP:1,2016-06-02T01:42:00Z,28.4330,-82.6670,72.69,1111122 
COMPS,ioos:station:USF.COMPS:ARP:1,2016-06-02T01:48:00Z,28.4330,-82.6670,71.79,1111122 
COMPS,ioos:station:USF.COMPS:ARP:1,2016-06-02T01:54:00Z,28.4330,-82.6670,73.62,1111122 
COMPS,ioos:station:USF.COMPS:ARP:1,2016-06-02T02:00:00Z,28.4330,-82.6670,75.27,1111122 
COMPS,ioos:station:USF.COMPS:ARP:1,2016-06-02T02:06:00Z,28.4330,-82.6670,76.24,1111122 
COMPS,ioos:station:USF.COMPS:ARP:1,2016-06-02T02:12:00Z,28.4330,-82.6670,75.84,1111122 
COMPS,ioos:station:USF.COMPS:ARP:1,2016-06-02T02:18:00Z,28.4330,-82.6670,77.22,1111122 
COMPS,ioos:station:USF.COMPS:ARP:1,2016-06-02T02:24:00Z,28.4330,-82.6670,79.38,1111122 
COMPS,ioos:station:USF.COMPS:ARP:1,2016-06-02T02:30:00Z,28.4330,-82.6670,81.47,1111122 
COMPS,ioos:station:USF.COMPS:ARP:1,2016-06-02T02:36:00Z,28.4330,-82.6670,80.01,1111122 
COMPS,ioos:station:USF.COMPS:ARP:1,2016-06-02T02:42:00Z,28.4330,-82.6670,80.16,1111122 
COMPS,ioos:station:USF.COMPS:ARP:1,2016-06-02T02:48:00Z,28.4330,-82.6670,80.09,1111122 
COMPS,ioos:station:USF.COMPS:ARP:1,2016-06-02T02:54:00Z,28.4330,-82.6670,79.69,1111122 
COMPS,ioos:station:USF.COMPS:ARP:1,2016-06-02T03:00:00Z,28.4330,-82.6670,79.89,1111122 
COMPS,ioos:station:USF.COMPS:ARP:1,2016-06-02T03:06:00Z,28.4330,-82.6670,80.96,1111122 